When you browse on this site, cookies collect data to enhance your experience and personalize the content and advertising you see.
Visit our Privacy Policy to learn more. By continuing to use the site, you agree to this use of cookies and data.

Hourly Weather Perth

Today, 9 July, Thursday

Time Temperature Precipitation Wind Pressure Humidity
00:00 +12°C° 0 mm 1 mps 766 mmHg 76%
01:00 +12°C° 0 mm 1 mps 767 mmHg 77%
02:00 +12°C° 0 mm 1 mps 767 mmHg 78%
03:00 +10°C° 0 mm 2 mps 767 mmHg 80%
04:00 +10°C° 0 mm 2 mps 767 mmHg 82%
05:00 +10°C° 0 mm 2 mps 767 mmHg 84%
06:00 +10°C° 0 mm 2 mps 767 mmHg 83%
07:00 +10°C° 0 mm 2 mps 768 mmHg 82%
08:00 +10°C° 0 mm 2 mps 768 mmHg 79%
09:00 +12°C° 0 mm 2 mps 768 mmHg 71%
10:00 +13°C° 0 mm 2 mps 768 mmHg 64%
11:00 +14°C° 0 mm 3 mps 768 mmHg 56%
12:00 +16°C° 0 mm 2 mps 768 mmHg 53%
13:00 +17°C° 0 mm 2 mps 768 mmHg 50%
14:00 +17°C° 0 mm 2 mps 767 mmHg 47%
15:00 +17°C° 0 mm 2 mps 767 mmHg 53%
16:00 +16°C° 0 mm 2 mps 767 mmHg 58%
17:00 +14°C° 0 mm 3 mps 767 mmHg 64%
18:00 +13°C° 0 mm 3 mps 768 mmHg 68%
19:00 +14°C° 0 mm 2 mps 768 mmHg 72%
20:00 +13°C° 0 mm 2 mps 769 mmHg 76%
21:00 +13°C° 0 mm 2 mps 769 mmHg 79%
22:00 +12°C° 0 mm 2 mps 769 mmHg 81%
23:00 +11°C° 0 mm 3 mps 769 mmHg 83%

Tomorrow, 10 July, Friday

Time Temperature Precipitation Wind Pressure Humidity
00:00 +11°C° 0 mm 3 mps 769 mmHg 83%
01:00 +10°C° 0 mm 2 mps 769 mmHg 83%
02:00 +10°C° 0 mm 2 mps 769 mmHg 83%
03:00 +9°C° 0 mm 2 mps 769 mmHg 83%
04:00 +9°C° 0 mm 2 mps 770 mmHg 83%
05:00 +8°C° 0 mm 2 mps 770 mmHg 83%
06:00 +8°C° 0 mm 2 mps 770 mmHg 81%
07:00 +8°C° 0 mm 3 mps 771 mmHg 79%
08:00 +8°C° 0 mm 3 mps 771 mmHg 78%
09:00 +9°C° 0 mm 3 mps 771 mmHg 72%
10:00 +11°C° 0 mm 3 mps 771 mmHg 65%
11:00 +12°C° 0 mm 4 mps 771 mmHg 59%
12:00 +13°C° 0 mm 3 mps 770 mmHg 57%
13:00 +14°C° 0 mm 3 mps 770 mmHg 54%
14:00 +16°C° 0 mm 3 mps 769 mmHg 51%
15:00 +14°C° 0 mm 3 mps 769 mmHg 53%
16:00 +14°C° 0 mm 3 mps 769 mmHg 55%
17:00 +14°C° 0 mm 2 mps 769 mmHg 57%
18:00 +12°C° 0 mm 3 mps 770 mmHg 60%
19:00 +11°C° 0 mm 3 mps 770 mmHg 62%
20:00 +10°C° 0 mm 3 mps 770 mmHg 65%
21:00 +10°C° 0 mm 3 mps 770 mmHg 66%
22:00 +10°C° 0 mm 3 mps 770 mmHg 66%
23:00 +9°C° 0 mm 3 mps 770 mmHg 67%

Day after tomorrow, 11 July, Saturday

Time Temperature Precipitation Wind Pressure Humidity
00:00 +8°C° 0 mm 4 mps 770 mmHg 68%
01:00 +8°C° 0 mm 4 mps 770 mmHg 69%
02:00 +8°C° 0 mm 4 mps 770 mmHg 70%
03:00 +8°C° 0 mm 5 mps 770 mmHg 71%
04:00 +8°C° 0 mm 5 mps 770 mmHg 72%
05:00 +7°C° 0 mm 5 mps 770 mmHg 73%
06:00 +7°C° 0 mm 5 mps 770 mmHg 73%
07:00 +7°C° 0 mm 5 mps 770 mmHg 73%
08:00 +7°C° 0 mm 5 mps 770 mmHg 73%
09:00 +9°C° 0 mm 5 mps 770 mmHg 68%
10:00 +10°C° 0 mm 5 mps 770 mmHg 62%
11:00 +13°C° 0 mm 5 mps 770 mmHg 56%
12:00 +14°C° 0 mm 5 mps 769 mmHg 54%
13:00 +15°C° 0 mm 4 mps 768 mmHg 52%
14:00 +17°C° 0 mm 4 mps 767 mmHg 49%
15:00 +17°C° 0 mm 3 mps 767 mmHg 52%
16:00 +16°C° 0 mm 3 mps 767 mmHg 55%
17:00 +16°C° 0 mm 3 mps 767 mmHg 58%
18:00 +14°C° 0 mm 3 mps 767 mmHg 60%
19:00 +13°C° 0 mm 4 mps 767 mmHg 62%
20:00 +12°C° 0 mm 4 mps 767 mmHg 64%
21:00 +11°C° 0 mm 4 mps 767 mmHg 62%
22:00 +11°C° 0 mm 4 mps 767 mmHg 59%
23:00 +11°C° 0 mm 4 mps 767 mmHg 57%

12 July, Sunday

Time Temperature Precipitation Wind Pressure Humidity
00:00 +11°C° 0 mm 4 mps 767 mmHg 56%
01:00 +10°C° 0 mm 4 mps 766 mmHg 56%
02:00 +10°C° 0 mm 4 mps 766 mmHg 55%
03:00 +10°C° 0 mm 4 mps 766 mmHg 55%
04:00 +10°C° 0 mm 4 mps 765 mmHg 55%
05:00 +8°C° 0 mm 4 mps 765 mmHg 56%
06:00 +8°C° 0 mm 4 mps 765 mmHg 56%
07:00 +8°C° 0 mm 4 mps 765 mmHg 56%
08:00 +8°C° 0 mm 5 mps 765 mmHg 57%
09:00 +10°C° 0 mm 5 mps 765 mmHg 52%
10:00 +13°C° 0 mm 5 mps 764 mmHg 48%
11:00 +15°C° 0 mm 6 mps 764 mmHg 44%
12:00 +16°C° 0 mm 5 mps 763 mmHg 42%
13:00 +17°C° 0 mm 5 mps 762 mmHg 40%
14:00 +20°C° 0 mm 5 mps 762 mmHg 39%
15:00 +19°C° 0 mm 5 mps 761 mmHg 42%
16:00 +18°C° 0 mm 4 mps 761 mmHg 46%
17:00 +18°C° 0 mm 4 mps 761 mmHg 49%
18:00 +17°C° 0 mm 4 mps 761 mmHg 51%
19:00 +15°C° 0 mm 4 mps 761 mmHg 52%
20:00 +14°C° 0 mm 4 mps 761 mmHg 54%
21:00 +14°C° 0 mm 4 mps 761 mmHg 53%
22:00 +13°C° 0 mm 4 mps 761 mmHg 52%
23:00 +13°C° 0 mm 4 mps 761 mmHg 51%

13 July, Monday

Time Temperature Precipitation Wind Pressure Humidity
00:00 +13°C° 0 mm 4 mps 761 mmHg 50%
01:00 +13°C° 0 mm 4 mps 761 mmHg 49%
02:00 +13°C° 0 mm 4 mps 760 mmHg 48%
03:00 +13°C° 0 mm 4 mps 760 mmHg 48%
04:00 +13°C° 0 mm 4 mps 760 mmHg 48%
05:00 +12°C° 0 mm 4 mps 760 mmHg 47%
06:00 +12°C° 0 mm 4 mps 760 mmHg 47%
07:00 +12°C° 0 mm 4 mps 760 mmHg 47%
08:00 +12°C° 0 mm 4 mps 760 mmHg 47%
09:00 +14°C° 0 mm 4 mps 760 mmHg 45%
10:00 +16°C° 0 mm 5 mps 760 mmHg 42%
11:00 +19°C° 0 mm 6 mps 759 mmHg 39%
12:00 +20°C° 0 mm 6 mps 759 mmHg 38%
13:00 +21°C° 0 mm 6 mps 758 mmHg 37%
14:00 +22°C° 0 mm 6 mps 757 mmHg 36%
15:00 +21°C° 0 mm 5 mps 756 mmHg 40%
16:00 +21°C° 0 mm 5 mps 756 mmHg 43%
17:00 +20°C° 0 mm 4 mps 756 mmHg 47%
18:00 +19°C° 0 mm 4 mps 756 mmHg 47%
19:00 +17°C° 0 mm 5 mps 756 mmHg 46%
20:00 +16°C° 0 mm 5 mps 756 mmHg 45%
21:00 +16°C° 1.6 mm 5 mps 755 mmHg 56%
22:00 +15°C° 1.6 mm 4 mps 755 mmHg 66%
23:00 +14°C° 1.6 mm 4 mps 754 mmHg 76%

14 July, Tuesday

Time Temperature Precipitation Wind Pressure Humidity
00:00 +15°C° 7.5 mm 4 mps 754 mmHg 80%
01:00 +15°C° 7.5 mm 5 mps 754 mmHg 85%
02:00 +15°C° 7.5 mm 5 mps 754 mmHg 90%
03:00 +16°C° 1.3 mm 5 mps 753 mmHg 88%
04:00 +16°C° 1.3 mm 5 mps 753 mmHg 86%
05:00 +16°C° 1.3 mm 5 mps 753 mmHg 84%
06:00 +17°C° 0.5 mm 4 mps 753 mmHg 86%
07:00 +15°C° 0.5 mm 4 mps 753 mmHg 87%
08:00 +14°C° 0.5 mm 4 mps 754 mmHg 88%
09:00 +13°C° 2.3 mm 5 mps 753 mmHg 87%
10:00 +12°C° 2.3 mm 5 mps 753 mmHg 86%
11:00 +10°C° 2.3 mm 6 mps 753 mmHg 85%
12:00 +10°C° 3.8 mm 5 mps 753 mmHg 85%
13:00 +11°C° 3.8 mm 4 mps 753 mmHg 84%
14:00 +11°C° 3.8 mm 3 mps 753 mmHg 84%
15:00 +11°C° 0.3 mm 3 mps 754 mmHg 82%
16:00 +12°C° 0.3 mm 3 mps 754 mmHg 81%
17:00 +13°C° 0.3 mm 2 mps 755 mmHg 79%
18:00 +12°C° 0.2 mm 3 mps 756 mmHg 81%
19:00 +12°C° 0.2 mm 3 mps 756 mmHg 82%
20:00 +12°C° 0.2 mm 3 mps 757 mmHg 84%
21:00 +11°C° 0.1 mm 3 mps 758 mmHg 84%
22:00 +11°C° 0.1 mm 3 mps 758 mmHg 84%
23:00 +11°C° 0.1 mm 3 mps 759 mmHg 84%
Show more